Glacier Park International Airport
KGPI : now visible

Airfield :











YOU CAN JOIN US ON...

 
LOGIN :

Register | Disclaimer

   EN    FR    IT 

 









Legend :    VFR   Marginal VFR   IFR   Intensive IFR   Very Intensive IFR
Visi :
Ceiling :
>= 8 km
>= 3000ft
5 to 8 km
1000 to 3000 ft
1500m to 5 km
500 to 1000 ft
800 to 1500m
200 to 500 ft
< 800m
< 200 ft
Symbols :   Thunderstorms  Fog  Heavy snow  Heavy precipitations  Wind > 20 kt






- Airport Elevation : 2977 ft
- IATA code : FCA


KGPI - Glacier Park International

CURRENT METAR :
  • 011455Z 00000KT 10SM OVC060 M08/M09 A3010 RMK AO2 SNE08 SLP239 P0000 60000 T10831089 55000

EXPIRED METARs :
  • 011355Z AUTO 00000KT 6SM -SN BR OVC070 M08/M09 A3009 RMK AO2 SNB47 SLP238 P0000 T10781089
  • 011303Z AUTO 00000KT 10SM SCT011 OVC080 M09/M09 A3010 RMK AO2 T10891094

TAF KGPI
Valid from the 01 at 15:00 until the 02 at 12:00 UTC


011504Z 0115/0212 00000KT P6SM OVC060
FM020000 17005KT P6SM SCT030 OVC060
FM020900 00000KT 5SM BR VCFG SCT002
KZLC FIR / North America



MET'MAP, your aeronautical weather chart ! - Copyright ORBIFLY December 2007 - Disclaimer

ORBIFLY MET'MAP TEAM :

Programming & Development : Alexandra Zaïnal
Original concept : Baudouin d'Aumeries
Technical & hardware support : Manuel Goepfert
Assistance : Marc-Olivier Méhu




SOURCES & CREDITS :

   NOAA       Earth
Advisory